Location: Newark
(48.8833°N, 0.9236°W)
Time: 00:19:16
(UTC+00:00)

Tiros 1 despin weight - Pass Details

Date: 19 November 2019
Orbit: 594 x 642 km, 48.2° (Epoch: 05 December)

Event Time Altitude Azimuth Distance (km) Brightness Sun altitude
Rises 17:35:53 0° 281° (W) 2,845 ? -12.5°
Reaches altitude 10° 17:38:12 10° 277° (W) 1,947 ? -12.8°
Maximum altitude 17:42:33 56° 200° (SSW) 727 ? -13.5°
Enters shadow 17:46:40 12° 123° (ESE) 1,849 ? -14.2°
Drops below altitude 10° 17:46:59 10° 122° (ESE) 1,969 - -14.2°
Sets 17:49:20 0° 118° (ESE) 2,881 - -14.6°
